IRIDIUM 64 [-]

Last updated on April 2, 2019, 3:15 a.m. UTC

1 25287U 98021C   19091.68972066  .17111958 -20646-5  26399-3 0  9997
2 25287  86.3901 309.3769 0070091 118.5464 242.9717 16.38686808 98986

Satellite is not in orbit.